Location: Cudham
(51.3000°N, 0.0667°E)
Time: 04:23:21
(UTC+00:00)

Cosmos 1842 - Pass Details

Date: 19 May 2025
Orbit: 440 x 450 km, 82.5° (Epoch: 13 June)

Event Time Altitude Azimuth Distance (km) Brightness Sun altitude
Exits shadow 23:32:58 59° 191° (S) 533 2.9 -18.5°
Maximum altitude 23:33:34 89° 286° (WNW) 463 2.8 -18.5°
Drops below altitude 10° 23:37:05 10° 10° (N) 1,608 6.8 -18.6°
Sets 23:39:10 0° 11° (N) 2,488 8.1 -18.6°
